Погода в Погребняках

Украина / Полтавская область     49°35′07″N   32°47′43″E
темп.,
°C
ветер,
м/с
пор.,
м/с
влажн.,
%
обл.,
%
осадки,
мм/ч
давл.,
гПа
погр.,
м
8 мая, сб
сб800:00+13юз4978100 0.4 1010298
03:00+12ю41190100 4.4 1008425
06:00+12ююз61187100 0.4 1005604
09:00+12юз61096100 5.3 1005608
12:00+12зсз71188100 3.4 1008860
15:00+11зсз10127295 3.4 10111286
18:00+10зсз911745 0.2 10121165
21:00+6сз511855 0.3 1016615
9 мая, вс
вс900:00+5сз512845 0.0 1017492
03:00+4сз512892 0.0 1019399
06:00+3сз512850 0.0 1021357
09:00+9сз68620 0.0 1023857
12:00+12сз7105093 0.0 10232195
15:00+12сз795347 0.1 10241787
18:00+12сз58571 0.0 10251770
21:00+7ссз34725 0.0 102746
10 мая, пн
пн1000:00+6ссз22735 0.0 102818
03:00+5с22735 0.0 102814
06:00+5ссв227348 0.0 103027
09:00+11св33550 0.0 1030479
12:00+14ссв34425 0.0 10291709
15:00+15ссв45425 0.0 10281796
18:00+15ссв46525 0.0 10271588
21:00+9ссв35720 0.0 102768
11 мая, вт
вт1100:00+7с36780 0.0 102688
03:00+6ссз4108198 0.0 1025187
06:00+7с6147391 0.0 1024339
09:00+9с6116997 0.0 1023434
12:00+16ссв796197 0.0 1021993
15:00+16всв71067100 0.0 10201276
18:00+14св6107271 0.1 10211197
21:00+9св38925 0.2 1021167
12 мая, ср
ср1200:00+7ссв411907 0.0 1020241
03:00+6св4994100 0.0 1019249
06:00+7св51085100 0.0 1018440
09:00+9всв697998 0.0 1017752
12:00+11в687593 0.4 1016887
15:00+11вюв6775100 1.5 1014783
18:00+10в568676 2.4 1014721
21:00+7в22945 2.7 101417